Location: Finkenwalde
(53.3770°N, 14.6418°E)
Time: 09:04:00
(UTC+00:00)

Gblst 52 Del rocket - Pass Details

Date: 05 February 2023
Orbit: 805 x 1364 km, 51.5° (Epoch: 19 March)

Event Time Altitude Azimuth Distance (km) Brightness Sun altitude
Rises 18:46:41 0° 266° (W) 3,372 8.6 -26.2°
Reaches altitude 10° 18:49:11 10° 265° (W) 2,408 7.5 -26.6°
Enters shadow 18:54:35 75° 193° (SSW) 838 4.0 -27.4°
